| time (UTC) | temp C | wind direction | speed KPH | gust KPH | rain 1hr cm | rain 24hr cm | rain mn cm | humidity % | barometer mb |
| 20260504200209 | 15 | 341 | 12.9 | 0.0 | 0.00 | 0.00 | 0.00 | 59 | 1010.1 |
| 20260504193209 | 16 | 5 | 19.3 | 0.0 | 0.00 | 0.00 | 0.00 | 56 | 1010.1 |
| 20260504190209 | 16 | 355 | 8.0 | 0.0 | 0.00 | 0.00 | 0.00 | 55 | 1010.2 |
| 20260504183209 | 17 | 264 | 12.9 | 0.0 | 0.00 | 0.00 | 0.00 | 52 | 1010.9 |
| 20260504180214 | 17 | 251 | 9.7 | 0.0 | 0.00 | 0.00 | 0.00 | 50 | 1010.6 |
| 20260504173209 | 18 | 259 | 3.2 | 0.0 | 0.00 | 0.00 | 0.00 | 47 | 1010.3 |
| 20260504170210 | 18 | 260 | 4.8 | 0.0 | 0.00 | 0.00 | 0.00 | 43 | 1010.1 |
| 20260504160210 | 19 | 271 | 11.3 | 0.0 | 0.00 | 0.00 | 0.00 | 41 | 1010.0 |
| 20260504150210 | 20 | 309 | 3.2 | 0.0 | 0.00 | 0.00 | 0.00 | 35 | 1009.8 |
| 20260504140209 | 21 | 171 | 22.5 | 0.0 | 0.00 | 0.00 | 0.00 | 38 | 1010.2 |
| 20260504130215 | 21 | 34 | 9.7 | 0.0 | 0.00 | 0.00 | 0.00 | 38 | 1010.5 |
| 20260504120210 | 21 | 111 | 17.7 | 0.0 | 0.00 | 0.00 | 0.00 | 39 | 1010.9 |
| 20260504110210 | 20 | 26 | 11.3 | 0.0 | 0.00 | 0.00 | 0.00 | 31 | 1011.4 |
| 20260504100212 | 20 | 342 | 12.9 | 0.0 | 0.00 | 0.00 | 0.00 | 38 | 1011.9 |
| 20260504080210 | 17 | 22 | 8.0 | 0.0 | 0.00 | 0.00 | 0.00 | 47 | 1012.8 |
| 20260504070212 | 13 | 22 | 1.6 | 0.0 | 0.00 | 0.00 | 0.00 | 68 | 1013.1 |
| 20260504060212 | 10 | 114 | 0.0 | 0.0 | 0.00 | 0.00 | 0.00 | 79 | 1013.0 |
| 20260504050210 | 8 | 344 | 0.0 | 0.0 | 0.00 | 0.00 | 0.00 | 86 | 1012.9 |
| 20260504043211 | 8 | 319 | 3.2 | 0.0 | 0.00 | 0.00 | 0.00 | 86 | 1013.0 |
| 20260504040211 | 7 | 309 | 1.6 | 0.0 | 0.00 | 0.00 | 0.00 | 86 | 1013.1 |
| 20260504033211 | 8 | 131 | 1.6 | 0.0 | 0.00 | 0.00 | 0.00 | 85 | 1013.3 |
| 20260504030212 | 8 | 215 | 1.6 | 0.0 | 0.00 | 0.00 | 0.00 | 82 | 1013.4 |
| 20260504023211 | 10 | 343 | 1.6 | 0.0 | 0.00 | 0.00 | 0.00 | 80 | 1013.4 |
| 20260504020212 | 10 | 265 | 0.0 | 0.0 | 0.00 | 0.00 | 0.00 | 80 | 1013.3 |
| 20260504013211 | 10 | 265 | 0.0 | 0.0 | 0.00 | 0.00 | 0.00 | 79 | 1013.3 |
| 20260504010211 | 10 | 355 | 0.0 | 0.0 | 0.00 | 0.00 | 0.00 | 77 | 1013.1 |
| 20260504003210 | 11 | 310 | 1.6 | 0.0 | 0.00 | 0.00 | 0.00 | 74 | 1013.3 |
| 20260504000208 | 11 | 186 | 3.2 | 0.0 | 0.00 | 0.00 | 0.00 | 73 | 1013.5 |
| 20260503233209 | 11 | 144 | 3.2 | 0.0 | 0.00 | 0.00 | 0.00 | 71 | 1013.8 |
| 20260503230209 | 12 | 115 | 3.2 | 0.0 | 0.00 | 0.00 | 0.00 | 69 | 1014.0 |
| 20260503223210 | 12 | 140 | 4.8 | 0.0 | 0.00 | 0.00 | 0.00 | 66 | 1014.1 |
| 20260503213210 | 13 | 211 | 6.4 | 0.0 | 0.00 | 0.00 | 0.00 | 60 | 1013.9 |
| 20260503210211 | 13 | 206 | 4.8 | 0.0 | 0.00 | 0.00 | 0.00 | 58 | 1013.6 |
| 20260503203209 | 14 | 221 | 4.8 | 0.0 | 0.00 | 0.00 | 0.00 | 56 | 1013.3 |